When you browse on this site, cookies collect data to enhance your experience and personalize the content and advertising you see.
Visit our Privacy Policy to learn more. By continuing to use the site, you agree to this use of cookies and data.
  • In Romania
  • List of Countries
  • For 7 days
  • Water Temperature
  • Satellite Maps
  • Weather Map
  • Weather Widgets
  • user-avatar
    Login

    Hourly Weather Ahwaz

    Today, 19 November, Monday

    Time Temperature Precipitation Wind Pressure Humidity
    00:00 +19°C° 0 mm 4 mps 762 mmHg 58%
    01:00 +18°C° 0 mm 4 mps 762 mmHg 60%
    02:00 +18°C° 0 mm 3 mps 762 mmHg 62%
    03:00 +18°C° 0 mm 3 mps 762 mmHg 63%
    04:00 +17°C° 0 mm 3 mps 762 mmHg 64%
    05:00 +17°C° 0 mm 3 mps 762 mmHg 65%
    06:00 +17°C° 0 mm 3 mps 762 mmHg 66%
    07:00 +18°C° 0 mm 3 mps 762 mmHg 62%
    08:00 +18°C° 0 mm 3 mps 763 mmHg 58%
    09:00 +19°C° 0 mm 3 mps 763 mmHg 54%
    10:00 +20°C° 0 mm 3 mps 763 mmHg 49%
    11:00 +22°C° 0 mm 3 mps 762 mmHg 43%
    12:00 +24°C° 0 mm 3 mps 762 mmHg 38%
    13:00 +24°C° 0 mm 3 mps 762 mmHg 36%
    14:00 +25°C° 0 mm 3 mps 762 mmHg 34%
    15:00 +25°C° 0 mm 3 mps 762 mmHg 32%
    16:00 +25°C° 0 mm 3 mps 762 mmHg 34%
    17:00 +24°C° 0 mm 3 mps 762 mmHg 37%
    18:00 +23°C° 0 mm 2 mps 762 mmHg 40%
    19:00 +23°C° 0 mm 2 mps 762 mmHg 41%
    20:00 +23°C° 0 mm 2 mps 762 mmHg 42%
    21:00 +21°C° 0 mm 2 mps 762 mmHg 43%
    22:00 +21°C° 0 mm 2 mps 762 mmHg 44%
    23:00 +21°C° 0 mm 2 mps 762 mmHg 45%

    Tomorrow, 20 November, Tuesday

    Time Temperature Precipitation Wind Pressure Humidity
    00:00 +21°C° 0 mm 2 mps 762 mmHg 45%
    01:00 +20°C° 0 mm 2 mps 762 mmHg 46%
    02:00 +20°C° 0 mm 3 mps 762 mmHg 46%
    03:00 +20°C° 0 mm 3 mps 762 mmHg 47%
    04:00 +20°C° 0 mm 3 mps 762 mmHg 47%
    05:00 +20°C° 0 mm 3 mps 762 mmHg 48%
    06:00 +19°C° 0 mm 2 mps 762 mmHg 48%
    07:00 +20°C° 0 mm 2 mps 763 mmHg 46%
    08:00 +20°C° 0 mm 2 mps 763 mmHg 44%
    09:00 +21°C° 0 mm 2 mps 763 mmHg 42%
    10:00 +21°C° 0 mm 3 mps 763 mmHg 39%
    11:00 +22°C° 0 mm 3 mps 763 mmHg 36%
    12:00 +24°C° 0 mm 3 mps 763 mmHg 33%
    13:00 +24°C° 0 mm 3 mps 763 mmHg 32%
    14:00 +25°C° 0 mm 3 mps 762 mmHg 30%
    15:00 +25°C° 0 mm 3 mps 762 mmHg 29%
    16:00 +24°C° 0 mm 3 mps 762 mmHg 32%
    17:00 +24°C° 0 mm 2 mps 762 mmHg 35%
    18:00 +23°C° 0 mm 2 mps 762 mmHg 37%
    19:00 +21°C° 0 mm 2 mps 762 mmHg 38%
    20:00 +21°C° 0 mm 2 mps 763 mmHg 39%
    21:00 +21°C° 0 mm 2 mps 763 mmHg 41%
    22:00 +20°C° 0 mm 2 mps 763 mmHg 42%
    23:00 +20°C° 0 mm 2 mps 763 mmHg 43%

    Day after tomorrow, 21 November, Wednesday

    Time Temperature Precipitation Wind Pressure Humidity
    00:00 +19°C° 0 mm 2 mps 763 mmHg 44%
    01:00 +19°C° 0 mm 2 mps 762 mmHg 45%
    02:00 +19°C° 0 mm 3 mps 762 mmHg 46%
    03:00 +18°C° 0 mm 3 mps 762 mmHg 47%
    04:00 +18°C° 0 mm 3 mps 762 mmHg 48%
    05:00 +18°C° 0 mm 3 mps 762 mmHg 49%
    06:00 +17°C° 0 mm 3 mps 762 mmHg 50%
    07:00 +18°C° 0 mm 3 mps 763 mmHg 46%
    08:00 +19°C° 0 mm 3 mps 763 mmHg 43%
    09:00 +20°C° 0 mm 3 mps 763 mmHg 40%
    10:00 +21°C° 0 mm 3 mps 763 mmHg 36%
    11:00 +24°C° 0 mm 3 mps 763 mmHg 33%
    12:00 +25°C° 0 mm 4 mps 762 mmHg 30%
    13:00 +25°C° 0 mm 4 mps 762 mmHg 29%
    14:00 +25°C° 0 mm 3 mps 762 mmHg 28%
    15:00 +26°C° 0 mm 3 mps 761 mmHg 27%
    16:00 +25°C° 0 mm 3 mps 762 mmHg 30%
    17:00 +24°C° 0 mm 2 mps 762 mmHg 34%
    18:00 +23°C° 0 mm 2 mps 762 mmHg 37%
    19:00 +23°C° 0 mm 2 mps 762 mmHg 38%
    20:00 +22°C° 0 mm 1 mps 762 mmHg 40%
    21:00 +22°C° 0 mm 1 mps 763 mmHg 41%
    22:00 +21°C° 0 mm 1 mps 762 mmHg 42%
    23:00 +21°C° 0 mm 1 mps 762 mmHg 43%

    22 November, Thursday

    Time Temperature Precipitation Wind Pressure Humidity
    00:00 +21°C° 0 mm 1 mps 762 mmHg 44%
    01:00 +20°C° 0 mm 1 mps 762 mmHg 44%
    02:00 +20°C° 0 mm 1 mps 762 mmHg 45%
    03:00 +20°C° 0 mm 1 mps 762 mmHg 46%
    04:00 +18°C° 0 mm 0 mps 762 mmHg 46%
    05:00 +18°C° 0 mm 0 mps 762 mmHg 47%
    06:00 +18°C° 0 mm 0 mps 762 mmHg 48%
    07:00 +19°C° 0 mm 0 mps 762 mmHg 43%
    08:00 +20°C° 0 mm 0 mps 762 mmHg 38%
    09:00 +21°C° 0 mm 0 mps 763 mmHg 34%
    10:00 +22°C° 0 mm 0 mps 762 mmHg 32%
    11:00 +23°C° 0 mm 0 mps 762 mmHg 30%
    12:00 +24°C° 0 mm 0 mps 762 mmHg 29%
    13:00 +24°C° 0 mm 0 mps 761 mmHg 28%
    14:00 +24°C° 0 mm 0 mps 761 mmHg 28%
    15:00 +26°C° 0 mm 1 mps 760 mmHg 27%
    16:00 +26°C° 0 mm 1 mps 760 mmHg 30%
    17:00 +25°C° 0 mm 1 mps 761 mmHg 33%
    18:00 +25°C° 0 mm 1 mps 761 mmHg 36%
    19:00 +24°C° 0 mm 1 mps 761 mmHg 36%
    20:00 +24°C° 0 mm 2 mps 761 mmHg 37%
    21:00 +24°C° 0 mm 2 mps 761 mmHg 37%
    22:00 +24°C° 0 mm 2 mps 761 mmHg 38%
    23:00 +23°C° 0 mm 2 mps 761 mmHg 39%

    23 November, Friday

    Time Temperature Precipitation Wind Pressure Humidity
    00:00 +23°C° 0 mm 2 mps 760 mmHg 41%
    01:00 +23°C° 0 mm 2 mps 760 mmHg 42%
    02:00 +23°C° 0 mm 2 mps 760 mmHg 44%
    03:00 +23°C° 0 mm 2 mps 760 mmHg 46%
    04:00 +21°C° 0.9 mm 3 mps 760 mmHg 50%
    05:00 +21°C° 0.9 mm 3 mps 760 mmHg 55%
    06:00 +20°C° 0.9 mm 3 mps 760 mmHg 60%
    07:00 +20°C° 4.9 mm 3 mps 761 mmHg 65%
    08:00 +19°C° 4.9 mm 4 mps 761 mmHg 70%
    09:00 +17°C° 4.9 mm 5 mps 762 mmHg 75%
    10:00 +17°C° 5.2 mm 6 mps 761 mmHg 76%
    11:00 +16°C° 5.2 mm 7 mps 761 mmHg 77%
    12:00 +16°C° 5.2 mm 8 mps 761 mmHg 78%
    13:00 +16°C° 1.3 mm 8 mps 761 mmHg 77%
    14:00 +16°C° 1.3 mm 8 mps 761 mmHg 77%
    15:00 +15°C° 1.3 mm 8 mps 761 mmHg 76%
    16:00 +16°C° 0.1 mm 7 mps 761 mmHg 75%
    17:00 +16°C° 0.1 mm 7 mps 761 mmHg 75%
    18:00 +16°C° 0.1 mm 6 mps 762 mmHg 74%
    19:00 +16°C° 0 mm 5 mps 762 mmHg 73%
    20:00 +16°C° 0 mm 5 mps 762 mmHg 72%
    21:00 +17°C° 0 mm 4 mps 763 mmHg 72%
    22:00 +17°C° 0 mm 4 mps 763 mmHg 73%
    23:00 +17°C° 0 mm 4 mps 763 mmHg 75%

    24 November, Saturday

    Time Temperature Precipitation Wind Pressure Humidity
    00:00 +18°C° 0 mm 4 mps 762 mmHg 76%
    01:00 +18°C° 0.2 mm 4 mps 763 mmHg 76%
    02:00 +18°C° 0.2 mm 4 mps 763 mmHg 77%
    03:00 +18°C° 0.2 mm 4 mps 763 mmHg 77%
    04:00 +18°C° 0.1 mm 4 mps 763 mmHg 76%
    05:00 +18°C° 0.1 mm 4 mps 763 mmHg 76%
    06:00 +18°C° 0.1 mm 4 mps 764 mmHg 75%
    07:00 +19°C° 0 mm 5 mps 764 mmHg 71%
    08:00 +21°C° 0 mm 5 mps 764 mmHg 67%
    09:00 +22°C° 0 mm 5 mps 764 mmHg 63%
    10:00 +23°C° 0 mm 5 mps 764 mmHg 60%
    11:00 +25°C° 0 mm 5 mps 763 mmHg 58%
    12:00 +26°C° 0 mm 5 mps 763 mmHg 55%
    13:00 +26°C° 1.1 mm 4 mps 763 mmHg 56%
    14:00 +26°C° 1.1 mm 4 mps 763 mmHg 58%
    15:00 +25°C° 1.1 mm 3 mps 762 mmHg 60%
    16:00 +25°C° 0.1 mm 3 mps 763 mmHg 62%
    17:00 +23°C° 0.1 mm 4 mps 763 mmHg 64%
    18:00 +23°C° 0.1 mm 4 mps 763 mmHg 67%
    19:00 +23°C° 0 mm 4 mps 763 mmHg 68%
    20:00 +22°C° 0 mm 5 mps 763 mmHg 70%
    21:00 +22°C° 0 mm 5 mps 763 mmHg 72%
    22:00 +22°C° 0 mm 5 mps 763 mmHg 73%
    23:00 +22°C° 0 mm 6 mps 763 mmHg 73%
    Show more